Regional Weather Roundup
Issued by NWS Wakefield, VA

Home | Current Version | Previous Version | Graphics & Text | Print | Product List | Glossary On
Versions: 1 2 3 4 5 6 7 8 9 10 11 12 13 14 15 16 17 18 19 20 21 22 23 24 25 26 27 28 29 30 31 32 33 34 35 36 37 38 39 40 41 42 43 44 45 46 47 48 49 50
000
ASUS41 KAKQ 281210
RWRAKQ

REGIONAL WEATHER ROUNDUP
NATIONAL WEATHER SERVICE WAKEFIELD VA
700 AM EST WED JAN 28 2015

Note: "fair" indicates few or no clouds below 12,000 feet with no
significant weather and/or obstructions to visibility. * = Denotes
station may not report precipitation (e.g., rain,snow,etc.),
thunder or fog.

VAZ042-051-052>054-056-281300-
NORTHERN VIRGINIA

CITY           SKY/WX    TMP DP  RH WIND       PRES   REMARKS
WASH NATIONAL  PTCLDY    25   8  48 NW16      30.17R WCI  12
DULLES         CLEAR     20   8  60 NW12      30.16R WCI   8
FORT BELVOIR   CLEAR     23   8  52 NW10      30.17R WCI  12
QUANTICO       PTCLDY    24  10  55 N8        30.19R
FREDERICKSBRG* CLEAR     25  13  61 N3        30.16R
STAFFORD*      CLEAR     23   8  52 N9G16     30.20R
WARRENTON      CLEAR     19  16  86 NE3       30.15R
CULPEPER*      CLEAR     21  10  63 N3        30.15R
MANASSAS*      CLEAR     21  12  68 N12G17      N/A  WCI   9
LEESBURG*      CLEAR     23  12  63 NW15G22   30.17R WCI  10
WINCHESTER     CLEAR     21   7  53 NW12      30.17R WCI   9
FRONT ROYAL*   FAIR      19  10  68 CALM      30.16R
LURAY*         FAIR      23  14  68 SE3       30.16R
$$

VAZ048-049-060>072-079>083-281300-
CENTRAL AND SOUTH CENTRAL VIRGINIA

CITY           SKY/WX    TMP DP  RH WIND       PRES   REMARKS
RICHMOND       CLEAR     25  11  55 N9        30.15R
CHESTERFIELD*  FAIR      25   3  39 N5        30.16R
PETERSBURG*    CLEAR     27  15  58 N5        30.16R
HANOVER        CLEAR     24  10  55 CALM      30.16R
TAPPAHANNOCK*  CLEAR     25   8  48 NW12      30.15R WCI  14
QUINTON*       FAIR      25  11  56 N5        30.15R
CHARLOTTSVILLE CLEAR     27   6  41 NW13G21   30.12R WCI  16
GORDONSVILLE*  FAIR      18  15  89 CALM      30.13R
ORANGE*        CLEAR     19  18  93 CALM      30.15R
LOUISA*        CLEAR     16  12  86 CALM      30.13R
BUMPASS*       FAIR      23  14  68 CALM      30.14R
FARMVILLE*     CLEAR     26  14  60 CALM      30.14R
CREWE*         FAIR      26  14  59 NW6       30.14R
FORT PICKETT*  FAIR      25  16  70 NW5       30.14R
CHASE CITY*    FAIR      27  17  67 CALM      30.14R
CLARKSVILLE*   FAIR      27  16  63 NW3       30.15R
SOUTH HILL*    CLEAR     24  16  72 CALM      30.20R
LAWRENCEVILLE* FAIR      25  18  76 CALM      30.14R
EMPORIA*       CLEAR     27  19  74 NW5       30.16R
$$

VAZ088>098-281300-
SOUTHEAST VIRGINIA

CITY           SKY/WX    TMP DP  RH WIND       PRES   REMARKS
NORFOLK        CLEAR     29  16  58 N9G24     30.11R
VIRGINIA BEACH PTCLDY    30  18  60 N15G25    30.10R WCI  19
NORFOLK NAVAL  PTCLDY    30  15  53 NW15      30.14R WCI  19
WEST POINT*    CLEAR     28  13  53 NW7       30.16R
SALUDA*        FAIR      26  14  60 N12       30.12R WCI  15
NEWPORT NEWS   CLEAR     29  13  51 N14       30.13R WCI  18
LANGLEY AFB    CLEAR     27  14  60 N9        30.13R
FORT EUSTIS    CLEAR     27  16  62 N13       30.12R WCI  16
WILLIAMSBURG*    N/A     28  16  59 N9G18     30.15R
HR EXEC AP*    FAIR      27  14  59 N7        30.15R
FRANKLIN*      CLEAR     26  15  61 N7        30.15R
WAKEFIELD      CLEAR     27  12  53 N6        30.14R
$$

VAZ020-022-025-037-045-281300-
WEST CENTRAL AND SOUTHWEST VIRGINIA

CITY           SKY/WX    TMP DP  RH WIND       PRES   REMARKS
STAUNTON*      CLEAR     15  11  84 CALM      30.16R
WAYNESBORO*    FAIR      18  11  74 W3        30.12R
HOT SPRINGS VA CLEAR     12  10  92 NW17      29.97R WCI  -6
LYNCHBURG      CLEAR     25  12  58 NW9       30.14R
DANVILLE       CLEAR     27  13  55 NW8       30.16R
SOUTH BOSTON*  FAIR      24  13  62 CALM      30.16R
MARTINSVILLE   CLEAR     25  15  64 N7        30.18R
ROANOKE        CLEAR     23  12  62 NW10      30.19R WCI  12
BLACKSBURG     CLEAR     17  10  75 W7        30.17R
DUBLIN*        CLEAR     21  15  78 NW5       30.17R
MARION*        CLOUDY    20  14  77 W10       30.18R WCI   8
HILLSVILLE*    PTCLDY    18  13  81 NW10      30.11R WCI   6
RICHLANDS*     FLURRIES  17  11  79 NW6       30.18R
WISE*          MOCLDY    16  16 100 CALM      30.19R
ABINGDON*      CLEAR     19  14  80 CALM      30.22R
$$

MDZ021>025-VAZ099-100-281300-
SOUTHERN MARYLAND AND THE DELMARVA PENINSULA

CITY           SKY/WX    TMP DP  RH WIND       PRES   REMARKS
PATUXENT RIVER PTCLDY    24  10  55 NW18      30.13R WCI  10
BAY BRIDGE APT   N/A     25   9  50 NW13G20   30.14R WCI  13
LEONARDTOWN    CLEAR     23  10  58 NW8       30.15R
DOVER          CLEAR     20   4  50 W15       30.09R WCI   6
GEORGETOWN     CLEAR     22   5  48 NW6       30.09R
EASTON         CLEAR     25  10  54 N12G17    30.16R WCI  14
CAMBRIDGE      CLEAR     28  10  47 NW15      30.12R WCI  17
SALISBURY      CLEAR     25   7  46 NW14      30.09R WCI  13
OCEAN CITY     CLEAR     22   8  55 NW15G23   30.07R WCI   9
WALLOPS ISLAND CLEAR     23   9  55 N12       30.10R WCI  12
ACCOMACK*      CLEAR     28  12  50 N16G24    30.09R WCI  17
$$

NCZ012>017-030>032-281300-
NORTH CENTRAL AND EASTERN NORTH CAROLINA

CITY           SKY/WX    TMP DP  RH WIND       PRES   REMARKS
ROANOKE RAPIDS FAIR      28  19  69 N6        30.14R
RALEIGH        CLEAR     26  13  57 N3        30.15R
ELIZABETH CITY CLEAR     29  17  61 N15       30.12R WCI  18
AHOSKIE*       CLEAR     28  15  58 N6        30.15R
EDENTON*       CLEAR     29  19  65 N12       30.12R WCI  20
CURRITUCK*     CLEAR     29  18  62 NW6       30.12R
KILL DEVIL HLS PTCLDY    31  22  69 NW7       30.07R
MANTEO         PTCLDY    30  23  74 N12G24    30.09R WCI  21
CAPE HATTERAS  MOCLDY    33  24  69 N8        30.07R
TARBORO*       FAIR      29  20  68 NW5       30.15R
GOLDSBORO      CLEAR     27  22  80 NW3       30.13R
WASHINGTON     CLEAR     30  19  64 N8        30.13R
GREENVILLE     CLEAR     30  21  69 N3        30.15R
NEW BERN       CLEAR     30  21  69 NW7       30.13R
WILMINGTON     CLEAR     28  18  66 N10       30.13R WCI  19
$$

VAZ048-281300-
ELSEWHERE

CITY           SKY/WX    TMP DP  RH WIND       PRES   REMARKS
HARRISBURG PA  PTCLDY    17   4  56 NW14G21   30.13R WCI   3
BALTIMORE      PTCLDY    20   5  52 W8        30.13R
ANNAPOLIS      CLEAR     23   7  50 NW10      30.14R WCI  12
ANDREWS AFB    CLEAR     21   8  58 NW13      30.13R WCI   9
PHILADELPHIA   PTCLDY    20  -2  38 NW16      30.07R WCI   6
HENDERSON NC   CLEAR     25  13  61 CALM      30.14R
GREENSBORO     CLEAR     23  13  65 CALM      30.14R
ROCKY MOUNT    CLEAR     28  17  63 NW8       30.15R
$$

VAZ100-281300-
MARINE

STATION/POSITION TIME  TEMP    WIND        PRES    WAVE   SWELL
                       AIR SEA DIR/SP/G            HT/PER HT/PER
                 (UTC) (F)     (DEG/KT/KT) (MB)    (FT/S) (FT/S)
BRANDYWINE LGT   1200   23 36  330/ 20/ 24 1017.8R
CAPE MAY NJ      1200   24 36  340/  3/  9 1017.3R
LEWES DE         1200   23 34  330/ 25/ 31 1018.0R
15NM E FENWICK I 1200   27 41              1016.0R   7/ 6
OCEAN-CITY-INLET 1200   24 38  340/ 14/ 19 1017.7R
WACHAPREAGUE VA  1200   27 38  330/  3/ 13 1018.9R
THOMAS POINT MD  1200   23 36  310/ 11/ 12 1021.7R
GOOSES REEF MD   1200   25     VRB 19/ 23  1018.9R
COVE POINT MD    1200   24     340/ 21/ 25 1019.9R
SOLOMONS ISLAND  1200      37                N/A
BISHOPS HEAD MD  1200   25 32  340/ 11/ 18 1019.3R
PINEY POINT MD   1200          340/ 19/ 23   N/A
POTOMAC MD       1200   27     340/ 16/ 19 1019.0R
CAMBRIDGE MD     1200   26 35  330/ 15/ 22 1019.6R
LEWISETTA VA     1200   26 36  340/ 14/ 19 1020.4R
RAPPAHANNOCK LGT 1200          330/ 23/ 27 1019.7R
STINGRAY PT      1200   28     330/ 16/ 19 1019.9R
YORK RVR RNG VA  1200   29     340/ 18/ 22 1019.3R
YORKTOWN VA      1200   27 40  330/ 16/ 19 1020.0R
JAMESTOWN VA     1200   26     360/ 12/ 17   N/A
DOMINION TERM VA 1200   28     360/ 12/ 19 1020.1R
KIPTOPEKE VA     1200      44  340/ 19/ 24   N/A
CHES BAY BRIDGE  1200   30 41  330/ 20/ 26 1019.1R
CAPE HENRY VA    1200   30     330/ 23/ 28 1018.0R
CHESAPEAKE LGHT  1100   31     340/ 29/ 31 1017.8R
WILLOUBY STN VA  1200   28     340/ 14/ 18 1020.3R
S CRANEY ISL VA  1200          340/ 14/ 19 1019.7R
CAPE HENRY BUOY  1200      43                N/A     6/ 6   2/12
1ST LANDING BUOY 1200   31     340/ 19/ 23 1018.7R
CAPE CHARLES BUO 1200      42                N/A     5/13   3/13
OFFSHORE WE BUOY 1200      44                N/A     9/ 6   5/13
64NM E OF VA BCH 1200   35 51  350/ 23/ 29 1016.4R  11/11   8/11
DUCK PIER NC     1200   32 42  330/ 22/ 25 1017.5R
44100 DUCK FRF   1200      45                N/A     9/13   5/13
44056 DUCK FRF   1200      43                N/A     7/12   5/12
OREGON INLET NC  1200   32 42  320/ 12/ 19 1018.1R
HATTERAS NC      1200   35 48  340/ 20/ 23 1018.3R


USA.gov is the U.S. government's official web portal to all federal, state and local government web resources and services.